Wind_Speed
50 49 48 49 48 45 45 45 45 47 47 46 46 46 45 45 44 43 44 44 42 40 38 37 38 39 40 42 44 45 43 42 43 44 43 42 42 41 41 41 41 40 40 40 39 38 37 36 36 36 36 35 35 34 33 33 32 32 32 32 32 32 32 32 31 31 31 32 32 32 32 31 30 29
50 50 49 51 50 48 49 50 49 48 47 47 47 46 45 45 45 44 44 44 43 42 40 38 38 40 41 41 42 43 43 42 42 42 41 40 40 41 42 41 41 41 41 41 40 39 39 38 38 38 37 37 36 36 35 35 34 34 34 34 34 34 34 34 34 34 34 34 35 35 34 33 32 30
51 50 50 52 51 50 51 52 52 51 48 47 48 47 46 46 45 45 46 44 43 43 42 40 39 40 41 41 40 40 41 42 42 41 39 39 40 41 42 41 41 42 42 41 41 40 39 39 39 39 38 38 37 37 37 36 36 36 35 35 35 36 36 36 36 36 36 36 36 36 36 35 34 32
52 52 52 52 52 52 52 51 51 51 50 48 48 47 47 46 46 46 47 45 42 43 44 43 41 41 42 41 39 37 38 40 40 40 40 40 41 42 42 42 41 41 40 40 40 40 39 39 39 39 39 39 38 38 38 38 38 37 36 36 36 36 37 37 37 37 36 36 36 36 36 36 35 33
51 53 53 53 53 53 53 52 51 51 51 50 49 48 47 47 47 47 47 46 43 44 46 46 44 42 42 40 37 36 37 37 38 39 41 42 42 42 42 41 41 40 39 39 39 39 39 39 39 39 39 40 40 40 39 39 38 37 36 36 36 36 36 36 35 35 35 35 35 35 36 36 35 34
49 52 53 54 54 53 53 53 52 52 51 51 50 50 48 47 48 49 48 47 45 45 47 48 47 45 42 39 37 37 36 36 37 39 40 42 43 43 42 41 40 40 40 39 39 39 39 39 40 40 40 41 40 40 39 37 36 35 35 35 35 34 34 33 33 33 33 34 34 35 35 35 35 34
47 50 52 52 52 51 51 51 51 51 51 51 50 50 49 48 49 50 50 48 47 46 47 50 50 48 44 41 38 38 37 36 37 38 39 41 42 42 41 40 40 40 40 40 39 39 39 39 39 40 40 39 38 37 36 35 34 34 33 32 32 32 31 31 30 31 31 31 32 33 33 34 34 34
44 47 50 50 48 47 47 48 49 50 50 50 49 49 49 49 48 50 51 49 47 47 48 50 51 51 48 44 41 39 38 36 36 36 37 39 40 42 41 40 40 41 41 40 39 38 37 37 37 37 36 35 34 34 33 33 33 32 31 30 29 29 28 28 28 29 29 29 29 30 31 32 33 33
42 44 47 48 48 46 45 46 48 49 50 49 49 48 48 48 48 49 50 49 48 48 48 50 52 53 51 46 42 40 39 36 36 35 35 36 38 40 42 41 41 41 40 38 37 36 35 34 34 33 33 32 32 32 32 31 31 30 29 28 27 27 26 26 27 27 27 27 28 29 29 30 31 31
40 42 44 46 47 45 44 45 48 49 50 49 48 48 48 48 48 49 50 50 48 48 48 49 51 54 53 48 44 42 40 37 36 35 35 35 36 37 39 39 39 39 38 37 35 34 33 32 31 30 31 31 31 31 30 30 29 29 28 28 27 26 26 25 25 26 26 27 28 29 29 29 29 29
37 39 42 44 45 44 44 46 48 49 49 48 46 47 48 49 49 49 50 50 49 48 48 48 50 52 53 50 46 44 42 39 37 35 34 34 34 35 36 37 37 38 37 35 34 32 31 30 29 29 29 30 30 30 29 29 28 28 28 28 27 27 26 25 25 25 26 27 28 28 28 28 28 28
35 37 39 42 44 44 45 46 47 49 49 48 46 47 49 50 50 50 50 50 49 47 48 48 48 50 53 52 48 46 44 40 37 35 34 33 34 35 37 38 38 38 36 34 32 31 30 29 28 28 29 30 31 30 29 29 28 28 29 28 28 27 27 26 26 26 27 28 28 28 28 28 28 28
34 36 37 39 41 43 44 45 46 48 49 48 47 47 49 50 51 51 51 51 49 48 48 48 47 48 51 52 51 48 45 40 38 37 36 34 35 37 39 38 37 37 35 33 31 30 30 29 29 29 29 30 31 31 30 30 29 29 29 29 29 29 28 27 27 28 28 29 29 29 29 28 28 28
33 35 35 36 38 40 42 43 44 46 47 47 47 47 47 49 50 51 51 51 50 48 48 48 47 48 50 52 52 50 47 44 42 41 39 36 37 39 40 38 37 36 35 32 30 30 31 30 29 29 29 30 31 31 30 30 30 30 30 30 30 30 29 29 29 29 30 31 31 30 29 29 28 27
31 34 34 34 35 37 38 41 42 44 45 46 47 47 47 47 49 50 51 50 50 49 48 48 48 48 49 51 52 52 51 48 46 42 40 38 38 39 39 39 38 37 35 32 30 30 31 30 29 28 29 30 30 29 30 30 30 30 31 31 31 31 30 30 30 30 31 32 32 31 30 29 28 27
28 31 33 32 33 35 37 40 41 42 44 45 46 47 47 47 48 50 50 49 49 48 47 47 47 48 48 49 52 53 52 51 48 45 43 41 40 39 39 38 38 38 37 34 30 30 30 30 29 29 30 30 30 28 28 29 29 30 31 32 32 32 32 31 30 31 31 32 32 32 31 29 28 28
26 28 31 31 32 33 36 39 40 41 43 44 45 46 47 47 48 49 50 49 47 46 46 46 46 47 47 48 51 53 54 54 52 49 46 43 40 39 38 38 38 38 37 33 30 29 30 31 31 31 30 30 29 28 28 29 29 29 30 31 32 33 33 32 31 31 32 32 32 31 31 30 29 29
24 26 31 33 33 33 35 38 39 40 41 43 44 44 44 45 46 48 49 47 45 44 44 44 43 44 46 47 50 53 56 57 55 52 48 45 43 41 39 37 37 36 35 33 31 30 31 33 33 32 31 31 30 29 29 29 29 29 30 30 31 32 33 33 32 32 32 32 32 31 31 30 30 29
21 25 30 33 32 33 34 36 37 39 40 41 42 43 42 42 44 45 45 45 44 44 43 41 40 42 45 46 49 53 57 58 57 54 51 49 45 41 37 35 34 35 35 35 34 32 32 34 34 33 32 31 31 30 30 29 29 30 30 30 31 32 32 33 33 32 32 32 32 31 30 30 30 30
20 24 28 29 29 31 33 34 36 38 40 40 41 42 41 41 41 42 41 42 44 44 44 41 40 43 45 46 48 53 57 59 58 56 54 51 46 40 36 34 33 35 36 37 36 35 34 34 34 34 33 32 32 32 31 30 30 30 31 31 31 32 32 33 33 32 32 32 31 30 30 29 29 29
21 26 28 28 28 29 31 32 34 37 38 39 40 40 40 40 41 40 40 42 44 45 44 42 42 45 47 47 49 52 56 59 59 58 56 52 46 41 38 36 36 36 37 38 38 37 36 35 36 35 34 33 33 33 33 32 30 30 31 31 31 32 32 33 33 32 32 32 30 29 29 29 29 28
20 24 27 27 27 28 28 30 32 34 34 35 36 37 38 39 39 39 40 43 44 44 44 43 44 46 48 48 48 51 54 57 59 58 55 51 48 44 40 38 39 40 39 38 40 40 39 38 38 36 35 34 34 34 35 34 32 30 30 29 29 30 31 32 32 32 32 31 30 29 29 28 28 28
19 20 25 27 27 26 26 27 28 29 30 32 33 35 36 36 36 37 39 41 41 42 42 42 43 46 47 47 46 48 51 55 57 56 54 51 49 46 42 41 42 42 41 40 42 43 42 40 39 38 37 36 36 36 36 35 34 32 31 29 28 28 29 31 32 32 32 31 30 29 29 28 29 29
16 14 16 21 25 25 25 24 25 27 28 30 31 32 33 32 32 34 35 35 37 39 40 40 42 44 46 46 45 45 48 52 54 55 54 52 49 47 45 44 44 43 42 43 45 45 44 42 42 40 39 38 38 38 37 36 36 35 33 31 30 29 29 30 31 32 32 31 31 30 30 30 30 30
16 12 9 11 16 20 23 24 24 25 27 28 30 31 31 30 30 31 32 33 35 37 38 39 41 44 47 47 45 44 46 48 51 53 53 50 50 49 48 46 45 44 43 44 47 47 45 45 44 43 41 40 39 39 39 38 37 37 35 33 32 32 32 31 31 32 32 32 32 32 31 31 31 31
15 14 11 10 11 14 17 20 22 24 27 29 29 29 29 28 28 29 30 31 34 36 37 38 40 43 46 46 44 43 45 47 49 51 50 48 49 51 50 48 45 43 43 44 46 47 46 45 45 43 42 41 41 40 40 39 38 37 36 35 33 34 34 33 32 33 33 33 33 33 33 33 33 33
12 13 14 14 13 12 14 18 20 23 28 30 29 28 26 25 26 28 28 28 29 32 34 36 39 41 43 44 43 43 45 47 48 49 49 49 49 49 48 47 45 43 43 42 43 45 45 46 45 43 42 42 42 41 40 40 39 38 37 36 35 35 35 35 35 34 34 34 34 34 34 34 34 34
13 11 12 14 15 13 13 16 19 21 25 29 31 32 30 27 27 30 31 28 26 28 30 34 37 39 40 41 41 42 44 47 47 46 47 47 47 46 46 46 44 43 41 41 42 44 45 46 45 44 44 44 43 43 42 41 40 38 37 35 35 35 35 36 36 35 35 34 34 34 35 35 35 35
14 12 10 11 13 14 14 14 15 17 20 25 30 33 33 31 30 31 33 31 27 26 29 32 35 36 37 38 39 41 44 45 43 43 43 43 42 43 44 43 42 40 38 40 42 43 43 45 46 45 45 45 45 45 44 42 41 40 38 36 35 35 35 35 35 35 34 34 34 34 35 35 35 35
15 13 11 9 9 11 12 13 14 17 20 22 23 26 29 32 32 32 33 33 30 28 29 30 31 33 35 36 36 39 41 42 42 42 42 41 40 41 42 41 41 41 39 40 42 43 43 44 45 45 45 45 45 45 44 43 42 41 40 39 38 37 36 36 35 34 33 34 34 35 35 34 34 34
16 14 12 10 9 9 11 12 13 16 19 20 21 22 24 28 33 34 33 33 31 29 31 33 32 32 33 34 35 37 38 39 40 40 39 38 39 41 41 41 41 42 40 40 41 43 43 43 45 47 47 46 45 45 45 44 43 42 42 41 40 39 38 36 35 34 34 34 35 35 35 34 33 33
18 16 15 12 10 10 11 12 13 15 16 17 19 21 22 24 28 32 33 33 32 31 34 37 36 32 32 33 34 35 36 36 37 36 35 36 37 39 41 42 42 42 41 40 40 41 41 42 44 47 48 46 45 44 44 43 41 42 42 42 41 40 39 39 38 37 36 36 36 36 35 34 33 33
17 17 16 14 12 11 10 11 11 13 15 17 18 20 21 23 26 27 29 31 32 32 35 39 38 34 32 33 34 35 36 36 36 36 37 38 37 37 39 41 41 42 42 42 43 44 44 45 45 44 45 45 44 43 42 39 37 37 38 39 40 40 40 40 39 38 37 38 37 36 36 35 34 34
17 16 16 16 14 13 11 10 10 10 12 14 18 19 21 23 26 27 27 28 29 31 32 36 41 42 39 37 37 38 38 37 36 37 38 39 39 39 39 40 41 41 42 42 42 42 42 43 42 40 40 41 42 42 42 39 37 35 34 33 34 38 41 41 41 42 42 42 40 39 37 37 37 37
17 15 15 15 15 15 14 12 10 9 9 10 13 16 19 23 26 27 29 30 31 33 33 34 38 43 44 42 40 39 37 37 38 38 38 39 40 41 40 40 42 44 43 42 39 37 37 39 41 40 40 40 41 42 42 43 42 37 33 31 32 35 38 39 41 43 44 43 42 41 40 39 39 37
16 15 14 14 14 15 15 14 12 10 8 8 10 12 14 19 23 25 27 29 31 35 36 32 31 35 40 43 43 41 39 39 41 41 41 42 43 44 44 44 44 45 44 42 40 38 36 36 38 40 41 42 44 44 43 43 42 37 33 33 34 34 34 34 36 39 41 41 42 42 42 42 41 38
15 14 14 13 13 14 15 15 14 12 10 8 8 8 9 13 18 21 23 25 28 31 34 32 29 29 32 36 39 41 42 43 42 42 42 42 43 45 46 47 47 47 45 43 42 42 42 41 41 42 42 42 44 45 44 43 42 40 38 39 39 39 37 36 35 35 37 39 40 42 43 43 42 40
15 14 13 13 13 13 13 14 15 15 13 10 9 8 8 8 12 16 18 20 23 27 30 31 31 31 31 33 35 38 41 43 43 42 42 43 44 46 48 48 49 49 47 45 45 46 48 48 46 45 45 43 43 44 44 44 44 43 41 40 40 41 41 40 39 36 36 36 37 39 41 42 41 39
17 16 14 13 12 12 12 13 15 15 15 13 11 10 9 8 9 11 14 16 18 20 24 26 28 29 31 34 36 37 39 41 43 44 45 45 46 47 49 50 50 49 46 45 47 49 50 49 46 45 46 45 43 41 41 41 42 42 41 40 40 40 42 42 42 40 39 38 36 35 36 39 39 39
18 17 16 15 14 13 13 13 14 15 16 16 15 13 12 11 10 10 11 13 14 16 19 21 23 25 27 30 32 35 38 40 41 42 42 43 44 45 45 45 45 45 45 45 46 48 50 49 47 45 46 48 47 45 43 43 42 42 42 42 40 40 41 43 43 42 42 41 39 38 38 39 40 40
17 18 17 17 16 15 15 14 14 15 15 16 16 16 15 14 13 12 11 11 12 13 15 17 18 20 23 25 27 30 32 35 37 38 38 38 39 42 44 45 45 45 46 46 46 47 48 49 49 49 49 49 48 46 45 44 44 44 44 44 43 42 43 44 44 42 42 42 42 42 43 44 44 44
18 17 17 17 17 17 16 16 16 16 16 16 16 16 16 16 16 15 14 14 13 12 12 14 15 16 18 20 22 24 26 28 31 33 34 35 36 37 41 44 46 46 47 47 46 47 48 49 51 52 52 52 52 49 46 45 45 45 45 45 45 46 47 47 45 44 44 45 45 45 46 46 47 47
19 19 18 18 18 18 18 18 17 17 17 18 18 18 18 17 18 18 17 17 16 15 15 14 14 15 16 17 19 20 21 23 25 27 30 33 35 36 38 40 42 43 44 44 45 44 44 45 47 48 50 51 52 51 49 47 46 46 46 46 46 46 46 47 47 47 47 48 48 49 49 50 49 49
21 21 21 20 20 20 20 19 19 19 19 19 19 20 20 19 19 19 19 19 18 18 18 17 17 17 17 17 18 19 19 20 22 24 27 30 32 35 36 38 39 40 40 40 41 41 41 41 42 43 44 45 46 46 47 47 47 47 47 47 47 47 47 47 49 49 48 47 47 48 49 50 50 49
24 24 24 23 23 22 22 21 21 21 21 21 21 22 22 22 22 22 22 21 21 21 20 20 20 20 20 20 20 20 20 20 21 22 24 26 28 30 32 34 35 36 36 36 36 36 35 35 35 36 37 39 40 40 41 42 43 44 44 45 46 46 47 47 48 49 49 47 46 46 47 47 48 47
Wind_Direction
246 245 244 244 245 246 244 243 245 245 243 243 242 240 241 243 244 243 241 239 238 237 236 238 240 241 239 237 236 236 236 235 236 237 237 237 238 239 239 239 240 242 243 245 246 248 250 252 255 257 258 259 260 262 263 265 266 266 266 266 265 265 266 266 268 270 272 273 273 273 272 272 272 273
245 245 245 244 244 246 245 244 246 246 243 243 242 241 241 242 243 243 240 237 237 237 236 235 237 238 239 238 238 238 238 238 238 239 239 238 238 239 239 239 240 241 243 244 246 249 251 253 255 257 259 260 262 263 264 265 266 267 267 266 265 265 265 265 267 269 271 272 273 273 273 272 271 270
244 244 244 243 244 246 246 246 247 247 245 243 242 241 241 241 242 242 239 236 236 237 236 235 235 235 237 238 238 239 239 239 240 240 241 239 238 239 239 239 240 242 243 245 247 249 251 253 255 257 260 262 263 264 265 266 266 267 266 266 266 266 266 267 268 269 270 272 272 272 272 272 271 269
245 243 242 242 243 244 244 245 246 246 246 244 242 241 241 241 240 240 239 236 235 236 236 235 234 234 236 238 238 239 241 241 241 240 240 239 239 239 239 239 240 242 244 245 247 248 251 253 255 258 260 262 263 264 265 265 266 265 264 264 265 266 266 267 268 269 270 271 271 270 270 270 270 269
246 243 241 241 242 243 243 244 245 246 245 244 242 241 241 240 238 238 239 238 235 233 234 235 233 233 235 237 238 239 241 242 242 240 238 238 238 239 239 239 240 241 243 245 247 249 251 253 255 258 260 262 263 264 264 264 263 262 262 262 262 263 264 265 267 268 269 270 270 269 268 268 268 269
246 243 241 241 243 244 243 243 243 245 244 242 241 241 241 240 237 237 238 239 235 231 231 234 234 233 234 236 237 239 240 241 241 239 238 237 238 239 239 239 239 240 242 245 247 249 251 254 256 259 261 262 262 262 262 261 260 260 260 260 260 259 260 262 264 266 267 268 268 267 267 267 267 267
247 243 242 241 243 244 244 243 242 243 243 241 240 240 240 239 237 237 238 239 236 230 229 233 235 234 235 236 237 238 239 240 240 239 237 236 237 237 238 237 237 239 242 245 247 249 251 253 256 258 258 258 258 257 257 258 258 259 258 258 258 258 258 261 263 264 266 267 267 266 265 265 265 266
247 244 241 241 242 243 244 243 241 241 241 240 240 240 239 238 237 237 238 238 236 232 229 231 235 236 236 236 238 238 238 239 239 238 237 236 235 236 236 236 237 239 242 244 245 247 248 250 252 252 252 252 253 253 254 256 256 257 256 255 255 256 258 261 262 264 266 267 267 266 265 265 265 266
248 244 241 240 241 241 243 244 241 240 240 239 238 238 238 238 236 236 237 237 236 234 231 231 234 237 237 236 237 237 237 237 237 235 234 234 234 235 236 236 237 239 240 241 242 243 243 244 245 247 248 249 251 252 253 254 255 256 255 253 253 255 258 260 262 265 267 267 267 266 266 266 266 266
249 244 241 239 239 238 240 242 240 239 239 238 237 237 237 237 236 235 235 236 235 234 232 231 233 236 237 236 235 235 235 234 234 233 232 231 232 233 235 235 235 236 237 237 238 238 238 240 242 245 248 250 251 252 252 253 255 255 254 252 252 254 257 260 262 264 265 266 266 266 266 266 265 266
249 244 241 240 239 238 238 239 238 237 238 238 237 237 237 237 237 234 234 235 235 234 232 232 232 235 237 236 234 234 234 232 232 233 232 231 231 232 233 233 233 234 235 235 235 236 237 239 243 247 250 252 252 251 250 252 254 254 253 251 252 254 257 259 260 261 263 264 264 265 266 266 265 265
247 244 242 241 241 241 240 237 235 235 236 236 236 236 237 237 237 235 234 234 235 234 233 232 231 232 236 236 233 232 233 231 230 233 234 232 231 231 231 232 232 233 234 234 235 238 240 242 245 248 251 253 253 251 250 250 252 253 252 252 252 253 255 257 258 259 260 262 262 263 264 264 264 263
249 244 242 241 241 241 240 239 237 236 235 235 235 235 235 236 237 235 234 234 235 234 233 232 230 230 233 235 233 232 232 232 230 232 234 233 232 231 230 231 233 234 235 235 236 239 241 242 245 247 249 251 251 250 250 250 251 251 252 252 253 253 253 254 255 256 257 259 260 262 262 262 261 261
251 246 244 242 240 240 239 239 239 237 236 235 235 235 234 235 236 236 234 234 235 234 233 232 231 230 232 235 234 232 231 231 230 230 231 232 233 232 231 231 233 235 235 235 236 238 240 241 242 244 247 248 249 249 249 250 251 251 252 252 253 253 253 253 254 255 256 258 259 261 262 261 260 260
254 246 244 242 240 239 239 240 240 238 237 236 234 233 234 234 235 235 234 234 235 234 232 232 232 231 232 234 234 233 230 229 230 230 231 231 232 234 233 232 233 235 236 235 235 237 238 238 239 241 244 247 248 248 249 249 250 251 252 252 252 252 252 252 254 256 257 258 259 261 262 260 258 257
260 247 241 240 239 238 239 240 240 239 237 236 234 234 234 234 234 234 235 235 236 235 233 232 233 233 232 233 235 234 231 229 229 230 230 231 232 234 234 233 233 234 235 234 235 236 236 235 236 238 242 246 247 248 249 250 250 250 251 251 250 250 250 251 252 255 257 257 258 258 259 259 257 255
261 248 239 238 239 239 239 240 240 240 238 237 236 235 235 234 233 234 235 236 236 236 235 234 234 233 233 233 235 236 234 230 228 228 230 231 232 233 234 234 233 233 234 236 236 236 236 235 235 238 241 244 247 248 250 251 251 251 251 251 250 248 248 248 250 252 255 255 255 255 256 257 257 255
259 249 242 240 241 241 240 240 240 240 239 238 237 236 235 234 233 233 235 236 235 234 236 236 234 232 231 232 234 236 236 232 228 227 229 231 232 232 233 234 234 234 236 237 237 235 234 235 236 238 241 245 247 249 251 252 253 253 252 252 251 250 249 248 249 251 253 254 253 254 255 257 257 257
257 252 247 245 245 244 243 243 242 241 240 239 238 238 237 236 235 234 235 236 235 235 236 236 233 230 229 230 232 235 236 234 230 228 229 231 231 231 233 235 236 237 237 238 237 235 234 236 237 238 241 245 248 250 251 253 255 256 256 255 255 254 251 250 250 252 253 253 252 253 254 256 257 258
251 249 250 249 247 245 245 245 244 242 241 240 240 240 239 238 237 235 234 235 236 236 237 236 232 228 227 228 231 233 234 234 232 229 229 231 231 230 231 233 236 238 239 238 238 236 236 238 240 240 242 246 248 250 252 254 257 260 260 259 258 256 253 251 250 251 252 251 251 252 254 255 256 257
247 242 246 248 247 245 245 246 246 243 241 241 242 242 241 241 240 237 236 236 236 238 238 237 232 228 226 228 230 232 232 232 231 230 230 231 232 230 229 231 234 238 239 239 239 238 238 240 242 243 245 248 251 251 252 254 258 262 263 261 259 255 252 250 249 250 250 250 250 251 253 254 255 255
257 249 246 247 248 248 248 247 246 244 240 239 240 241 241 242 241 240 239 238 238 239 239 237 233 229 227 228 230 231 232 231 230 230 231 232 233 233 232 233 235 238 239 240 241 240 239 240 243 245 247 250 253 253 252 253 258 262 264 262 258 253 249 248 248 249 250 250 250 250 252 253 253 253
267 265 259 256 256 256 253 248 243 240 239 238 237 238 240 240 240 240 239 238 237 237 237 236 233 229 228 228 230 230 231 231 231 230 231 232 234 234 236 238 238 239 239 240 242 241 239 240 242 245 248 251 253 254 253 254 257 261 263 261 257 253 250 248 249 250 250 250 250 250 251 252 252 251
266 266 263 258 256 255 254 250 241 237 240 240 236 237 239 240 239 238 236 234 233 233 233 232 230 226 225 227 228 229 230 231 231 230 229 231 233 235 237 240 241 240 239 239 241 241 240 240 242 245 248 251 253 253 254 254 257 260 263 262 257 254 253 251 250 250 251 251 251 251 251 252 253 252
272 268 268 263 256 250 250 250 244 238 240 240 237 238 240 239 238 236 233 233 233 231 230 231 228 224 222 223 224 227 228 229 230 230 229 231 233 235 237 240 241 241 240 239 240 241 240 241 242 244 247 250 252 252 253 256 258 260 263 263 259 254 253 253 252 251 251 251 251 252 252 252 253 253
283 273 273 277 272 260 253 253 249 241 238 239 241 241 238 233 233 234 232 232 233 232 230 229 227 224 223 223 223 224 226 226 227 227 226 228 231 234 236 239 240 240 240 240 240 241 241 242 243 244 246 248 250 251 253 256 260 261 262 263 261 256 253 253 253 252 251 252 252 253 253 253 253 253
306 283 271 269 271 268 261 259 255 243 237 239 242 241 235 229 228 229 227 227 229 230 229 228 225 223 224 226 225 223 222 221 222 222 221 224 229 233 236 238 240 241 242 242 241 241 242 243 244 245 246 248 250 252 254 257 260 262 262 262 262 258 254 253 254 254 253 253 252 253 253 253 253 253
325 303 280 269 268 269 266 262 257 248 242 242 241 238 234 231 228 225 221 221 225 226 226 227 226 224 224 227 229 227 223 220 219 220 222 226 232 236 238 240 241 243 245 245 242 242 243 245 246 246 248 249 251 253 255 258 261 263 262 260 260 259 256 255 255 256 256 255 255 254 254 254 253 252
328 317 299 279 271 272 271 265 256 246 240 240 240 238 234 230 227 222 217 216 220 220 220 224 226 226 226 228 229 230 229 225 222 223 226 230 235 239 239 239 239 240 242 242 242 242 243 245 246 247 249 250 252 253 256 259 260 260 260 259 258 258 258 257 257 257 257 258 258 258 257 255 254 253
324 319 311 295 277 271 271 267 250 231 220 219 225 231 231 229 227 224 218 217 218 215 214 219 224 228 230 231 232 233 233 230 227 228 230 231 233 236 237 236 236 236 237 239 240 241 242 244 246 249 251 252 254 255 255 257 258 257 256 256 256 257 258 257 257 257 259 262 263 261 259 256 254 253
322 320 315 305 289 275 272 270 256 236 220 205 199 204 214 222 225 226 223 222 219 212 206 208 214 221 227 230 232 235 236 233 231 231 233 234 235 237 237 237 237 237 237 240 241 242 242 244 246 249 250 251 252 254 254 254 254 254 253 253 253 254 255 255 256 259 262 264 264 261 258 255 253 252
322 320 318 310 298 285 278 275 267 253 239 220 200 192 196 207 217 224 225 223 220 216 211 210 210 214 220 224 226 229 231 232 233 232 232 234 237 239 239 239 239 240 241 243 244 244 244 246 248 250 251 250 250 252 252 251 251 252 252 252 251 251 251 253 257 261 263 263 261 258 255 253 252 251
324 321 319 314 305 298 291 282 272 263 252 237 222 209 201 199 203 212 219 222 221 219 219 220 219 219 221 223 227 231 233 233 233 232 232 233 235 237 238 238 239 240 242 245 247 247 247 248 249 250 251 250 249 248 246 245 245 247 249 251 252 252 251 252 255 258 260 259 257 255 252 250 249 249
326 325 322 318 313 309 305 295 281 268 255 242 234 229 220 209 202 200 204 212 219 221 221 221 220 218 217 216 219 225 229 231 231 231 232 234 235 237 239 239 239 240 242 244 246 246 245 244 243 242 243 245 244 243 241 238 235 234 235 239 244 248 250 252 253 255 256 256 254 252 249 249 249 248
325 326 324 322 319 317 315 311 300 284 265 243 232 230 226 219 211 202 197 199 206 209 208 206 205 206 208 208 208 213 218 222 225 227 228 230 233 235 237 237 237 238 241 242 243 242 239 238 237 236 235 236 236 235 235 234 232 229 226 226 232 240 244 246 247 249 250 250 249 247 246 246 248 248
322 326 326 324 323 322 320 318 314 307 294 264 237 226 221 218 217 214 210 205 201 198 197 198 197 197 199 200 202 207 213 217 219 221 223 227 229 231 233 235 236 238 239 240 239 237 232 229 230 230 232 234 233 231 229 227 226 226 226 229 234 237 239 240 242 244 245 244 244 244 245 246 247 249
316 321 324 324 323 324 323 322 320 319 318 303 270 246 229 217 215 219 221 221 215 208 207 210 211 205 201 200 202 207 213 216 217 219 223 228 230 230 232 234 237 240 242 240 235 230 225 224 225 227 230 234 235 232 228 226 226 229 234 239 241 242 241 243 246 247 247 246 246 246 247 247 247 248
308 312 318 320 321 323 324 324 323 323 325 323 309 289 273 247 227 223 223 225 225 223 223 224 224 220 215 214 214 215 217 218 219 221 225 229 232 235 237 238 240 243 243 238 231 227 227 229 231 231 231 232 232 231 230 232 234 237 239 241 242 241 241 243 245 246 246 247 248 248 247 245 245 245
302 304 308 312 316 319 321 322 323 323 324 325 324 316 306 290 264 246 237 232 230 230 230 232 233 230 227 224 222 221 222 223 224 224 225 228 231 234 237 240 241 240 238 232 228 229 232 235 236 236 235 235 237 238 239 240 240 239 239 240 241 242 241 241 243 244 244 246 248 249 248 245 244 245
299 300 301 303 305 309 313 315 317 319 321 322 323 322 318 311 299 281 263 252 246 240 235 234 236 236 235 233 231 229 228 227 227 227 227 227 228 229 230 232 232 230 229 229 230 232 234 236 236 236 238 241 243 243 243 243 241 240 240 241 242 243 243 243 244 244 245 245 246 247 248 248 249 249
297 297 298 299 300 301 303 305 307 309 311 313 315 317 317 316 312 306 296 282 270 259 248 242 241 240 239 239 239 239 238 238 236 235 234 233 231 230 228 229 229 229 229 230 233 234 234 235 236 236 238 242 245 244 242 241 242 242 243 243 243 243 245 245 246 246 246 245 245 246 248 250 252 252
298 298 298 298 299 299 299 299 299 300 300 302 304 306 308 309 309 308 306 302 295 286 273 262 257 254 249 244 240 239 240 241 241 240 240 239 237 235 232 230 231 232 232 234 237 237 236 236 236 236 236 239 243 245 244 243 244 245 246 248 248 249 248 247 246 246 247 246 246 247 248 250 252 252
299 300 301 300 300 299 299 298 296 295 293 293 294 295 297 298 299 300 301 300 298 296 293 286 280 275 269 260 251 245 242 239 237 236 236 235 235 236 236 234 233 233 233 235 237 238 237 236 236 236 236 238 240 242 244 246 246 247 248 250 251 251 249 247 245 246 247 248 247 247 247 248 250 251
293 295 296 296 296 296 296 295 295 293 291 290 289 288 288 289 290 290 291 292 291 290 290 289 287 285 282 275 268 263 258 252 245 241 237 234 232 232 233 235 235 235 235 235 236 236 237 237 237 238 239 239 240 241 243 245 246 246 247 248 248 248 248 247 247 248 251 252 251 250 249 249 250 250
288 290 291 291 291 290 290 290 289 289 289 288 287 286 285 284 284 284 284 284 285 285 284 284 284 284 283 281 277 274 272 267 261 255 250 244 240 236 234 232 232 231 231 231 232 232 232 233 234 234 235 236 236 237 238 239 240 241 242 243 243 244 244 245 246 248 251 252 253 251 250 250 250 250
Height
5795 5796 5798 5800 5801 5803 5806 5807 5807 5808 5810 5813 5815 5817 5819 5821 5822 5824 5826 5829 5832 5834 5835 5836 5838 5838 5840 5841 5843 5845 5848 5851 5852 5854 5858 5862 5865 5867 5869 5871 5873 5875 5877 5879 5880 5882 5884 5885 5887 5888 5890 5891 5892 5893 5894 5895 5895 5896 5896 5897 5898 5898 5899 5899 5900 5900 5900 5900 5900 5901 5901 5902 5902 5903
5788 5789 5791 5793 5794 5796 5799 5800 5801 5802 5804 5806 5808 5810 5812 5814 5817 5820 5821 5824 5828 5829 5830 5832 5833 5834 5835 5836 5838 5841 5844 5846 5847 5850 5854 5858 5860 5862 5863 5866 5868 5870 5872 5874 5876 5878 5880 5881 5883 5884 5885 5887 5888 5889 5890 5891 5891 5892 5892 5893 5893 5894 5895 5895 5896 5896 5897 5897 5897 5897 5897 5898 5898 5899
5781 5783 5784 5786 5788 5790 5791 5793 5795 5796 5798 5800 5802 5804 5806 5808 5811 5814 5816 5819 5823 5825 5825 5827 5828 5829 5830 5832 5835 5838 5840 5841 5843 5846 5850 5852 5855 5856 5858 5861 5863 5865 5867 5870 5872 5874 5875 5877 5878 5879 5881 5882 5884 5885 5886 5886 5887 5888 5888 5889 5889 5890 5890 5891 5891 5892 5893 5893 5893 5893 5893 5893 5894 5895
5774 5776 5777 5780 5782 5783 5785 5787 5788 5790 5792 5794 5795 5797 5800 5802 5806 5808 5810 5814 5818 5820 5820 5821 5823 5824 5826 5828 5831 5834 5836 5837 5839 5842 5844 5847 5849 5851 5854 5856 5858 5861 5863 5865 5867 5869 5870 5872 5874 5875 5876 5878 5879 5880 5881 5882 5883 5883 5884 5884 5885 5885 5886 5886 5887 5887 5888 5889 5889 5889 5889 5889 5890 5891
5766 5769 5771 5773 5775 5776 5778 5780 5782 5784 5786 5787 5789 5791 5794 5796 5799 5802 5804 5808 5813 5814 5814 5815 5817 5820 5821 5824 5828 5830 5831 5832 5834 5837 5839 5841 5843 5846 5849 5851 5853 5856 5858 5860 5862 5864 5865 5867 5869 5870 5872 5873 5874 5875 5876 5877 5878 5879 5879 5880 5880 5881 5881 5882 5882 5883 5884 5884 5885 5885 5885 5885 5886 5887
5759 5761 5764 5766 5768 5770 5772 5774 5776 5777 5779 5781 5783 5785 5788 5791 5793 5796 5799 5802 5807 5809 5810 5810 5812 5814 5817 5821 5824 5825 5827 5828 5830 5832 5834 5836 5838 5841 5844 5846 5849 5851 5853 5855 5857 5858 5860 5862 5863 5865 5866 5868 5869 5870 5871 5872 5873 5874 5874 5875 5876 5876 5877 5878 5878 5879 5879 5880 5881 5881 5881 5881 5882 5883
5752 5754 5757 5759 5761 5763 5765 5768 5770 5771 5772 5774 5777 5780 5783 5785 5788 5790 5793 5796 5801 5804 5805 5805 5806 5809 5813 5816 5819 5820 5822 5824 5825 5827 5829 5831 5834 5837 5840 5842 5844 5846 5848 5850 5851 5853 5855 5857 5858 5860 5861 5862 5864 5865 5866 5867 5868 5869 5869 5870 5871 5872 5873 5873 5874 5875 5875 5876 5877 5877 5877 5878 5878 5879
5746 5747 5750 5753 5755 5756 5758 5761 5763 5765 5766 5768 5771 5774 5777 5779 5782 5784 5787 5790 5794 5798 5800 5801 5802 5804 5807 5811 5813 5815 5818 5819 5821 5823 5825 5827 5830 5833 5835 5837 5839 5841 5842 5844 5846 5848 5850 5852 5853 5854 5856 5857 5859 5860 5861 5862 5863 5864 5865 5866 5866 5867 5868 5869 5870 5870 5871 5872 5872 5873 5873 5874 5874 5875
5740 5741 5743 5746 5748 5750 5752 5754 5757 5759 5760 5762 5765 5768 5770 5773 5776 5778 5781 5785 5788 5792 5795 5797 5798 5799 5801 5805 5808 5810 5813 5815 5817 5819 5821 5823 5826 5829 5831 5833 5834 5836 5837 5839 5841 5843 5845 5847 5848 5850 5851 5853 5854 5855 5856 5858 5859 5860 5860 5861 5862 5863 5864 5865 5865 5866 5867 5868 5869 5869 5870 5870 5871 5871
5734 5735 5737 5739 5741 5744 5746 5748 5750 5752 5754 5757 5760 5762 5765 5767 5770 5772 5775 5779 5782 5786 5789 5792 5793 5793 5796 5800 5804 5806 5808 5811 5813 5815 5817 5819 5822 5825 5827 5829 5830 5831 5832 5835 5837 5839 5840 5842 5844 5845 5847 5848 5849 5850 5852 5853 5854 5855 5856 5857 5858 5859 5860 5860 5861 5862 5863 5864 5865 5865 5866 5867 5867 5867
5728 5729 5731 5733 5736 5738 5740 5741 5744 5746 5748 5751 5754 5757 5760 5761 5763 5766 5769 5773 5776 5780 5783 5786 5788 5789 5791 5795 5799 5801 5803 5806 5809 5811 5814 5816 5818 5821 5822 5824 5825 5826 5828 5830 5832 5834 5836 5837 5839 5841 5842 5844 5845 5846 5847 5849 5850 5851 5852 5853 5854 5855 5855 5856 5857 5858 5859 5860 5861 5862 5862 5863 5863 5864
5723 5724 5726 5728 5730 5732 5734 5736 5738 5740 5742 5745 5748 5751 5753 5755 5757 5760 5764 5767 5770 5774 5777 5780 5783 5784 5786 5789 5793 5795 5798 5802 5806 5808 5810 5812 5814 5816 5817 5818 5819 5821 5823 5826 5828 5830 5831 5833 5834 5836 5838 5839 5840 5841 5843 5844 5845 5846 5847 5849 5850 5851 5851 5852 5853 5854 5855 5856 5857 5858 5859 5859 5860 5860
5718 5719 5721 5723 5725 5727 5729 5731 5732 5734 5737 5739 5742 5744 5746 5749 5752 5754 5758 5761 5764 5768 5772 5774 5777 5779 5781 5783 5787 5790 5794 5799 5802 5804 5805 5807 5809 5810 5811 5813 5815 5817 5819 5822 5824 5825 5827 5828 5830 5832 5833 5834 5835 5837 5839 5840 5841 5842 5843 5845 5846 5846 5847 5848 5849 5850 5851 5852 5853 5854 5855 5855 5856 5856
5713 5714 5716 5718 5720 5721 5723 5725 5727 5729 5731 5733 5736 5738 5740 5743 5746 5748 5752 5755 5759 5762 5766 5768 5771 5774 5776 5778 5782 5785 5790 5794 5796 5798 5800 5803 5804 5804 5806 5809 5811 5813 5815 5817 5820 5821 5822 5824 5826 5827 5828 5829 5831 5833 5834 5836 5837 5838 5839 5840 5841 5842 5843 5844 5844 5845 5846 5847 5849 5850 5851 5851 5852 5852
5709 5709 5711 5713 5714 5716 5718 5720 5722 5724 5725 5727 5730 5732 5734 5737 5740 5742 5746 5750 5753 5757 5760 5763 5765 5768 5771 5774 5776 5779 5783 5787 5790 5793 5795 5797 5799 5800 5802 5805 5807 5808 5810 5813 5815 5817 5818 5820 5822 5823 5824 5825 5827 5829 5830 5831 5832 5833 5834 5835 5837 5838 5838 5839 5840 5841 5842 5843 5844 5846 5847 5847 5848 5849
5704 5704 5706 5708 5709 5710 5712 5713 5715 5718 5720 5722 5724 5726 5729 5731 5734 5737 5740 5744 5748 5751 5754 5757 5760 5763 5766 5769 5771 5774 5777 5781 5785 5788 5790 5791 5793 5795 5797 5800 5803 5804 5805 5808 5811 5813 5815 5816 5818 5819 5820 5821 5823 5825 5826 5827 5828 5829 5830 5831 5832 5833 5834 5834 5835 5836 5838 5839 5841 5842 5843 5844 5845 5845
5700 5700 5702 5703 5703 5705 5706 5707 5710 5712 5714 5717 5719 5721 5723 5726 5729 5732 5735 5739 5742 5745 5749 5752 5755 5758 5761 5764 5766 5768 5771 5774 5778 5781 5784 5787 5789 5791 5793 5796 5798 5799 5801 5804 5808 5810 5811 5812 5813 5815 5816 5817 5819 5821 5822 5823 5823 5824 5825 5826 5827 5828 5829 5830 5831 5832 5834 5835 5837 5838 5839 5840 5841 5841
5696 5697 5697 5698 5699 5700 5701 5703 5705 5707 5710 5712 5714 5716 5718 5721 5724 5727 5730 5733 5737 5740 5743 5746 5750 5754 5756 5759 5762 5763 5764 5767 5771 5775 5779 5782 5783 5786 5788 5791 5793 5796 5798 5800 5803 5806 5807 5807 5809 5811 5812 5814 5816 5817 5818 5819 5819 5820 5821 5822 5823 5824 5825 5826 5827 5828 5830 5831 5833 5834 5835 5836 5837 5837
5693 5693 5693 5695 5697 5698 5698 5699 5701 5703 5705 5707 5709 5711 5714 5717 5719 5722 5725 5729 5732 5735 5737 5741 5746 5749 5751 5754 5756 5757 5757 5760 5765 5770 5773 5775 5778 5781 5785 5788 5791 5793 5795 5795 5797 5801 5802 5803 5805 5807 5809 5810 5812 5813 5814 5815 5815 5816 5817 5818 5818 5820 5821 5821 5822 5824 5826 5827 5829 5830 5831 5832 5832 5833
5690 5690 5690 5692 5693 5694 5695 5696 5698 5699 5701 5703 5704 5706 5709 5712 5714 5717 5721 5724 5726 5729 5732 5736 5739 5742 5744 5747 5749 5749 5751 5754 5758 5762 5766 5769 5773 5779 5783 5785 5787 5789 5790 5791 5793 5796 5798 5799 5801 5803 5805 5806 5808 5809 5810 5811 5811 5812 5812 5813 5814 5815 5816 5817 5818 5819 5821 5823 5824 5826 5826 5827 5828 5829
5685 5686 5686 5688 5689 5690 5691 5692 5693 5694 5696 5699 5700 5702 5705 5707 5709 5713 5716 5718 5720 5723 5726 5730 5733 5735 5737 5739 5741 5742 5744 5748 5751 5754 5759 5764 5770 5775 5778 5781 5783 5784 5785 5787 5789 5791 5794 5795 5796 5798 5800 5802 5803 5805 5806 5807 5808 5808 5808 5809 5809 5810 5811 5812 5814 5815 5817 5818 5820 5821 5822 5823 5824 5825
5682 5682 5682 5683 5685 5686 5687 5688 5688 5690 5692 5694 5695 5697 5699 5701 5704 5708 5711 5712 5715 5717 5720 5724 5726 5728 5731 5733 5735 5737 5739 5742 5745 5749 5755 5760 5765 5769 5773 5776 5777 5778 5780 5783 5785 5787 5789 5790 5791 5793 5796 5797 5799 5801 5802 5803 5804 5804 5804 5805 5805 5806 5807 5808 5809 5811 5813 5814 5815 5817 5818 5819 5820 5821
5679 5679 5679 5679 5680 5681 5682 5683 5684 5685 5687 5689 5690 5692 5693 5696 5700 5703 5704 5706 5709 5712 5714 5717 5720 5723 5726 5729 5732 5734 5736 5737 5741 5745 5751 5755 5759 5764 5768 5770 5771 5773 5776 5779 5780 5781 5784 5786 5787 5789 5791 5793 5795 5797 5798 5800 5801 5801 5801 5801 5802 5803 5804 5804 5805 5807 5808 5810 5811 5813 5814 5815 5816 5817
5676 5676 5676 5676 5677 5678 5678 5679 5680 5682 5683 5684 5686 5687 5689 5692 5695 5697 5699 5701 5704 5705 5708 5711 5714 5717 5721 5724 5727 5730 5732 5734 5737 5742 5747 5751 5755 5759 5762 5764 5765 5768 5772 5774 5775 5776 5779 5781 5782 5784 5786 5788 5790 5792 5793 5795 5796 5797 5798 5798 5798 5799 5800 5801 5801 5802 5804 5805 5807 5808 5810 5811 5812 5813
5674 5673 5673 5673 5673 5674 5675 5675 5676 5678 5679 5680 5682 5683 5685 5688 5690 5691 5694 5697 5698 5700 5703 5706 5708 5712 5715 5718 5722 5725 5727 5730 5733 5737 5743 5748 5752 5754 5756 5758 5761 5764 5767 5769 5770 5772 5774 5776 5778 5780 5782 5783 5785 5787 5789 5791 5792 5793 5793 5794 5794 5795 5796 5797 5798 5798 5799 5801 5803 5804 5805 5806 5807 5809
5672 5670 5670 5670 5670 5671 5672 5672 5673 5675 5676 5677 5678 5679 5681 5683 5685 5687 5689 5692 5693 5695 5698 5701 5704 5707 5711 5714 5717 5720 5722 5726 5729 5733 5739 5745 5747 5748 5751 5754 5756 5758 5762 5764 5765 5767 5770 5772 5773 5775 5778 5779 5781 5782 5784 5786 5787 5788 5789 5789 5790 5791 5792 5793 5794 5794 5795 5797 5798 5800 5801 5802 5803 5804
5669 5668 5667 5667 5667 5668 5669 5669 5670 5671 5672 5673 5675 5676 5677 5679 5681 5683 5685 5687 5690 5692 5695 5697 5700 5704 5707 5710 5714 5717 5719 5722 5726 5730 5735 5738 5740 5743 5746 5749 5751 5754 5757 5759 5761 5763 5765 5766 5768 5771 5773 5774 5776 5778 5779 5781 5782 5783 5784 5785 5786 5787 5788 5789 5790 5791 5792 5793 5794 5795 5796 5797 5799 5800
5667 5666 5665 5665 5665 5665 5666 5666 5667 5668 5669 5670 5671 5672 5674 5675 5677 5679 5682 5684 5687 5689 5692 5695 5697 5700 5704 5707 5710 5713 5716 5719 5722 5726 5729 5732 5736 5739 5741 5744 5747 5750 5752 5754 5756 5758 5759 5761 5763 5765 5767 5769 5771 5772 5774 5776 5777 5779 5779 5780 5781 5782 5783 5784 5785 5787 5788 5789 5790 5791 5792 5793 5794 5795
5665 5664 5663 5663 5663 5663 5664 5664 5665 5665 5666 5667 5667 5669 5670 5672 5674 5676 5679 5681 5684 5687 5689 5692 5695 5699 5701 5704 5706 5709 5712 5715 5718 5721 5724 5729 5731 5733 5736 5739 5741 5743 5745 5747 5749 5751 5754 5756 5758 5760 5762 5763 5765 5767 5768 5770 5772 5773 5775 5776 5777 5778 5779 5780 5781 5782 5783 5785 5785 5786 5787 5788 5789 5790
5665 5663 5662 5662 5661 5662 5662 5663 5663 5663 5664 5665 5665 5666 5667 5669 5671 5674 5676 5679 5682 5685 5687 5690 5694 5697 5699 5701 5703 5706 5708 5711 5714 5717 5720 5724 5726 5727 5730 5733 5735 5737 5739 5742 5744 5746 5748 5751 5753 5755 5757 5758 5759 5761 5763 5765 5766 5768 5769 5771 5772 5773 5774 5775 5777 5778 5779 5780 5781 5781 5782 5783 5785 5786
5664 5663 5661 5660 5660 5660 5660 5661 5661 5662 5662 5663 5663 5664 5665 5666 5668 5670 5673 5676 5679 5683 5686 5689 5692 5694 5696 5698 5700 5703 5705 5707 5709 5712 5715 5718 5720 5722 5725 5728 5731 5733 5735 5737 5739 5741 5743 5745 5747 5749 5751 5753 5754 5755 5757 5759 5761 5762 5764 5765 5767 5768 5769 5770 5772 5773 5774 5775 5775 5776 5777 5778 5780 5781
5663 5662 5660 5659 5659 5659 5659 5659 5659 5659 5660 5661 5661 5662 5663 5664 5665 5667 5670 5673 5676 5680 5682 5685 5687 5690 5693 5695 5697 5699 5701 5703 5705 5708 5711 5713 5715 5718 5720 5723 5726 5728 5730 5732 5734 5736 5738 5740 5741 5743 5744 5747 5749 5750 5751 5754 5756 5756 5758 5759 5761 5762 5764 5765 5766 5768 5769 5770 5770 5771 5772 5774 5775 5777
5662 5661 5660 5658 5658 5657 5657 5657 5657 5657 5658 5658 5659 5660 5661 5663 5664 5665 5667 5669 5672 5675 5678 5680 5682 5684 5687 5690 5693 5695 5697 5699 5701 5703 5706 5708 5711 5713 5715 5718 5721 5724 5725 5727 5729 5731 5733 5734 5736 5738 5738 5740 5743 5745 5746 5748 5750 5751 5752 5754 5755 5757 5758 5759 5761 5762 5763 5764 5765 5766 5768 5769 5770 5772
5662 5660 5659 5658 5657 5656 5656 5656 5656 5655 5656 5656 5656 5658 5659 5661 5662 5663 5665 5666 5669 5671 5673 5676 5677 5678 5680 5683 5687 5689 5692 5694 5697 5699 5702 5704 5707 5709 5711 5714 5717 5719 5721 5722 5724 5725 5727 5729 5731 5732 5732 5733 5736 5738 5740 5743 5745 5746 5746 5748 5750 5751 5752 5753 5755 5756 5758 5759 5760 5761 5762 5764 5765 5767
5662 5660 5658 5657 5656 5655 5654 5654 5654 5654 5654 5654 5654 5655 5657 5658 5660 5661 5662 5664 5665 5667 5670 5672 5673 5673 5675 5678 5681 5683 5686 5689 5693 5695 5698 5700 5702 5704 5706 5709 5712 5714 5716 5717 5719 5720 5722 5722 5723 5725 5726 5728 5730 5732 5734 5736 5738 5740 5741 5742 5743 5745 5746 5747 5749 5750 5751 5753 5754 5755 5757 5758 5760 5761
5662 5660 5658 5657 5655 5654 5653 5653 5652 5652 5652 5653 5653 5653 5654 5655 5656 5658 5659 5661 5662 5664 5666 5668 5669 5670 5672 5674 5677 5679 5682 5684 5687 5689 5693 5695 5697 5699 5701 5704 5706 5709 5710 5711 5713 5714 5715 5716 5717 5719 5721 5723 5725 5726 5728 5730 5732 5734 5735 5736 5738 5739 5740 5741 5742 5744 5746 5747 5749 5750 5751 5753 5754 5756
5661 5660 5659 5657 5656 5654 5653 5652 5651 5651 5651 5651 5651 5651 5652 5653 5654 5655 5656 5657 5659 5661 5663 5665 5666 5668 5669 5671 5674 5676 5678 5680 5682 5684 5687 5690 5692 5694 5696 5698 5700 5702 5704 5705 5706 5708 5708 5709 5710 5713 5716 5718 5719 5721 5723 5724 5726 5727 5729 5730 5732 5733 5734 5735 5737 5739 5740 5742 5743 5745 5746 5747 5749 5750
5660 5659 5658 5657 5656 5655 5653 5652 5650 5650 5650 5650 5650 5650 5650 5651 5652 5653 5653 5654 5656 5657 5658 5660 5662 5664 5666 5668 5670 5672 5674 5675 5677 5679 5682 5684 5686 5688 5690 5692 5694 5696 5698 5700 5701 5702 5702 5704 5706 5709 5711 5713 5714 5716 5717 5719 5720 5722 5723 5725 5726 5728 5729 5730 5732 5733 5735 5737 5738 5739 5740 5742 5743 5745
5658 5658 5657 5656 5655 5654 5653 5652 5651 5650 5649 5649 5649 5649 5649 5649 5650 5650 5651 5652 5653 5653 5655 5657 5658 5660 5662 5663 5665 5667 5669 5671 5672 5674 5676 5678 5680 5682 5684 5686 5689 5691 5693 5695 5696 5697 5698 5700 5702 5704 5706 5708 5710 5711 5713 5714 5715 5717 5718 5720 5721 5722 5724 5725 5726 5728 5729 5731 5733 5734 5735 5736 5737 5739
5656 5655 5655 5655 5654 5654 5653 5652 5651 5650 5649 5648 5648 5648 5649 5649 5649 5649 5649 5650 5651 5651 5653 5654 5655 5656 5657 5659 5660 5662 5664 5666 5667 5669 5670 5672 5674 5676 5678 5680 5682 5685 5687 5689 5691 5692 5693 5695 5697 5699 5701 5703 5704 5706 5707 5709 5710 5711 5713 5714 5715 5716 5718 5719 5721 5722 5724 5726 5728 5729 5729 5730 5731 5733
5654 5653 5653 5653 5653 5652 5652 5651 5651 5650 5649 5648 5648 5648 5647 5648 5648 5648 5648 5649 5649 5649 5650 5651 5652 5653 5654 5655 5657 5659 5660 5661 5663 5664 5665 5667 5669 5670 5672 5674 5676 5679 5681 5683 5684 5686 5688 5689 5691 5693 5695 5696 5698 5700 5701 5702 5704 5705 5707 5708 5709 5710 5712 5713 5715 5716 5718 5720 5721 5722 5723 5724 5725 5726
5652 5651 5651 5651 5651 5650 5650 5650 5650 5649 5649 5648 5647 5647 5647 5646 5646 5646 5646 5647 5647 5647 5648 5648 5649 5650 5651 5653 5654 5656 5656 5657 5658 5659 5661 5662 5664 5666 5667 5669 5671 5673 5675 5677 5679 5680 5682 5684 5685 5687 5689 5691 5692 5693 5694 5696 5697 5698 5699 5701 5703 5704 5705 5707 5709 5710 5712 5713 5714 5715 5716 5718 5719 5720
5650 5649 5649 5649 5648 5648 5648 5648 5648 5648 5648 5647 5646 5646 5646 5645 5645 5645 5645 5645 5645 5646 5646 5646 5647 5647 5648 5650 5651 5652 5652 5653 5654 5655 5656 5658 5660 5661 5663 5664 5665 5667 5669 5671 5672 5674 5676 5677 5679 5681 5683 5684 5686 5687 5688 5689 5690 5692 5693 5694 5696 5697 5699 5700 5702 5703 5705 5706 5707 5708 5709 5711 5712 5713
5647 5647 5646 5646 5646 5646 5646 5646 5646 5646 5646 5645 5645 5645 5644 5644 5644 5644 5644 5644 5644 5644 5645 5645 5645 5645 5646 5647 5648 5648 5649 5650 5651 5652 5652 5653 5655 5656 5658 5659 5660 5662 5663 5665 5666 5667 5669 5671 5673 5674 5676 5677 5678 5680 5681 5682 5684 5685 5687 5688 5689 5691 5692 5693 5695 5696 5697 5699 5700 5701 5702 5703 5704 5705
5644 5644 5644 5644 5643 5643 5643 5643 5643 5643 5643 5643 5643 5642 5642 5642 5642 5641 5642 5642 5642 5642 5642 5643 5643 5643 5644 5644 5645 5645 5645 5646 5647 5648 5649 5650 5651 5652 5653 5654 5655 5657 5658 5659 5660 5661 5663 5665 5666 5667 5669 5670 5671 5672 5674 5675 5677 5678 5680 5681 5683 5684 5685 5687 5688 5689 5690 5692 5693 5694 5695 5696 5697 5698